Showing default

O3B FM9, 40351

Orbit data source: Space-Track

O3B FM9, 40351 is a payload satellite owned by O3B (JE) that was launched on Thu, 18 Dec 2014 UTC via a SOYUZ-ST-B launch vehicle from the French Guiana (FRGUI). Payload-class satellites include a variety of spacecraft equipped with specific instruments for various scientific and technological missions. These include communications satellites like Starlink; space stations such as the ISS; scientific satellites like the Hubble; Earth observation satellites from companies like Planet Labs, Umbra, and HawkEye 360; GPS; miniature CubeSats for education and research; and military/defense satellites.

Loading next visibility...
Identifier
40351, 2014-083D
Orbit
Active
Last TLE update
14 hours ago
Origin
Manufacturer
Thales Alenia
Mission
Operational Commercial Communications
Bus & Motor
PRISMA?, LS-400 AOCS?
Mass
700 kg wet, ~500 kg dry
Launch date (UTC)
2014-12-18 (11 years ago)
Launch vehicle
SOYUZ-ST-B
Launch site
French Guiana (FRGUI)
Object type
Payload
Rocket body
Debris
Shape & HBR
Trap Box + 2 Pan, 12 m
Radar Cross Section
21.980 m², Large (>1 m²)

Expand to show TLE details & history

TLE from 14 hours ago
0 O3B FM9
1 40351U 14083D   25186.41595500 -.00000019  00000-0  00000-0 0  9991
2 40351   0.0429   0.1806 0002721 104.1667 255.6825  5.00115679192719
Epoch: 2025-07-05T09:58Z
TLE epoch observation values (Epoch: 2025-07-05T09:58:58.512Z)
Latitude
-0.00095°
Longitude
-73.39803°
Altitude
8,065.341 km
Speed
5.254 km/s
True Right ascension
00h 00m 00s
True Declination
0° 00' 03"
Sunlit
Object was in daylight at epoch
Visualization orbit readout
Latitude
-0.0011°
Longitude
-73.8323°
Altitude
8,065.393 km
Speed
5.254 km/s
Apparent Right ascension
00h 03m 25s
Apparent Declination
-11° 53' 41"
Sunlit
Object is in daylight
Visualization observer readout
Local Sidereal Time
12:18:39
Azimuth
7.901° NNE
Elevation
-61.777°
Doppler factor
1
Orbital elements
Apogee altitude
8,072.876 km
Perigee altitude
8,065.014 km
Semi-major axis
14,447.082 km
Eccentricity
0.00027
Inclination
0.0429°
RAAN
0.1806°
Arg. of periapsis
104.1667°
True anomaly
Unknown
Mean anomaly
255.6825°
Eccentric anomaly
Unknown
Mean motion
1.24989 °/min
Orbital period
288.02 mins
BSTAR
0
Loading maneuver chart data...
Loading SW <> Apogee altitude chart data...
Loading historical data...
Loading historical data...
Loading historical data...
Loading historical data...
Loading historical data...
Loading historical data...
Loading historical data...
Other satellites on launch #83 in the year 2014 (2014-12-18 UTC)

O3B FM9 Visibility forecast

Observer location: undefined°, undefined°

Span
Click to sort rows by Start time (UTC) header in descending order
Start Az.
Max El. time (UTC)
Max El. Az.
Max El.
End time (UTC)
End Az.
80 mins2025-07-06 02:47:09.302Z232.674° WSW2025-07-06 03:27:09.302Z180.069° SSW24.339°2025-07-06 04:07:09.302Z127.466° SE
79 mins2025-07-06 08:48:09.302Z231.675° WSW2025-07-06 09:27:09.302Z180.138° SSW24.346°2025-07-06 10:07:09.302Z127.457° SE
79 mins2025-07-06 14:48:09.302Z231.749° WSW2025-07-06 15:27:09.302Z180.148° SSW24.401°2025-07-06 16:07:09.302Z127.399° SE
79 mins2025-07-06 20:48:09.302Z231.759° WSW2025-07-06 21:27:09.302Z180.08° SSW24.393°2025-07-06 22:07:09.302Z127.409° SE
|